Location: Driftwood Mobile Home Park
(33.7361°N, 117.9914°W)
Time: 07:43:52
(UTC+00:00)

Daily predictions for brighter satellites

Satellite Brightness Start Highest point End
(mag) Time Altitude Azimuth Time Altitude Azimuth Time Altitude Azimuth
SWIFT 4.5 12:04:55 10° SSW 12:05:17 10° S 12:05:39 10° S
OE (NEXTSAT) 4.1 12:02:55 11° SW 12:06:01 88° SE 12:09:17 10° NE
Cosmos 1513 Rocket 4.4 12:02:45 10° NNW 12:08:47 69° W 12:14:48 10° S
Envisat 3.6 12:06:01 10° NNE 12:11:02 60° E 12:16:02 10° S
ALOS 3.5 12:08:29 10° NNW 12:12:16 25° WNW 12:16:03 10° SW
Cosmos 1633 Rocket 3.8 12:09:05 10° S 12:13:19 55° E 12:17:34 10° NNE
H-2A R/B 4.1 12:10:10 10° NNE 12:13:39 39° E 12:17:09 10° SSE
Cosmos 1378 3.0 12:13:20 10° N 12:17:01 71° W 12:20:40 10° S
Meteor 1-5 Rocket 4.2 12:13:54 10° SSW 12:19:14 65° W 12:24:30 10° N
Cosmos 1356 3.4 12:16:38 10° N 12:19:54 78° E 12:23:09 10° S
ATLAS 3B R/B 4.5 12:15:15 10° SSE 12:20:29 27° ESE 12:25:52 10° NE
Cosmos 371 Rocket 3.3 12:16:50 10° NNW 12:21:39 76° WSW 12:26:26 10° S
